Weather observations for the past three days for
Pittsfield Municipal Airport
Imperial (Metric)
Date Time (edt) Wind (mph) Vis. (mi.) Weather Sky Cond. Temperature (ºF) Relative Humidity Wind Chill (°F) Heat Index (°F) Pressure Precipitation (in)
Air Dwpt 6 hour altimeter (in) sea level (mb) 1 hr 3 hr 6 hr
Max. Min.
25 12:54 W 12 10.00 Fair CLR 80.1 59 49% 81 29.9 1010.0
25 11:54 W 12 G 18 10.00 Fair CLR 77 60.1 56% 79 29.91 1010.5
25 10:54 W 13 10.00 Fair CLR 73.9 59 60% 29.92 1011.0
25 09:54 W 7 10.00 Fair CLR 71.1 55.9 59% 29.92 1011.1
25 08:54 W 10 10.00 Fair CLR 69.1 55.9 63% 29.91 1010.7
25 07:54 Calm 10.00 Fair CLR 66 55.9 66.9 55.9 70% 29.88 1010.0
25 06:54 S 3 10.00 Fair CLR 62.1 55.9 80% 29.88 1010.0
25 05:54 W 3 10.00 Fair CLR 57.9 53.1 84% 29.88 1010.3
25 04:54 NW 6 10.00 Fair CLR 61 54 78% 29.87 1009.7
25 03:54 Vrbl 6 10.00 Fair CLR 61 54 78% 29.85 1008.8
25 02:54 W 3 10.00 Fair CLR 60.1 53.1 78% 29.84 1008.5
25 01:54 Calm 10.00 Fair CLR 59 54 61 55.9 83% 29.83 1008.2
25 00:54 Calm 10.00 Fair CLR 60.1 54 80% 29.82 1007.8
24 23:54 Vrbl 5 10.00 Fair CLR 61 54 78% 29.81 1007.3
24 22:54 SE 5 10.00 Fair CLR 59 53.1 81% 29.79 1006.6
24 21:54 NW 8 10.00 A Few Clouds FEW095 60.1 53.1 78% 29.78 1006.3
24 20:54 Vrbl 5 10.00 Overcast OVC085 61 55 81% 29.76 1005.7
24 19:54 NW 12 G 23 10.00 Overcast FEW016 BKN021 OVC026 60.1 55.9 69.1 60.1 86% 29.75 1005.5 0.1
24 18:54 N 10 G 25 10.00 Light Rain BKN012 OVC019 61 57 87% 29.71 1004.2 0.01
24 17:54 NW 7 G 24 3.00 Light Rain Fog/Mist SCT013 OVC019 63 59 87% 29.66 1002.3
24 16:54 NW 13 G 24 10.00 Overcast FEW010 BKN038 OVC050 63 59 87% 29.64 1001.3 0.03 0.09
23 12:54 SW 10 G 24 10.00 Fair CLR 82.9 71.1 67% 88 29.68 1002.2
23 11:54 S 12 G 23 10.00 Fair CLR 82 72 72% 87 29.71 1003.2
23 10:54 Vrbl 7 10.00 Partly Cloudy SCT015 SCT110 78.1 70 76% 80 29.73 1004.0
23 09:54 S 10 9.00 Mostly Cloudy BKN012 73.9 69.1 85% 29.76 1005.1
23 08:54 S 7 9.00 Overcast BKN009 OVC013 71.1 68 90% 29.79 1006.3
23 07:54 Calm 10.00 Overcast OVC006 69.1 66.9 69.1 66 93% 29.81 1007.1
23 06:54 Calm 10.00 Overcast OVC006 68 66 93% 29.83 1007.6
23 05:54 SE 9 10.00 Overcast OVC010 68 66 93% 29.84 1007.8
23 04:54 Vrbl 5 10.00 Mostly Cloudy BKN009 68 64.9 90% 29.84 1007.9
23 03:54 Vrbl 3 10.00 Mostly Cloudy SCT010 BKN039 BKN085 66.9 64.9 93% 29.88 1009.1
23 02:54 N 5 10.00 Overcast BKN002 BKN006 OVC065 66.9 66 97% 29.9 1010.1
23 01:54 Calm 10.00 Mostly Cloudy FEW008 BKN014 66.9 66 71.1 66.9 97% 29.93 1010.9 0.06
23 00:54 Vrbl 5 10.00 Overcast BKN005 BKN010 OVC075 66.9 66 97% 29.95 1011.3 0.04
22 23:54 SE 3 8.00 Light Rain BKN006 OVC034 68 66 93% 29.99 1012.6 0.02
22 22:54 E 3 10.00 Overcast OVC007 68 66 93% 29.98 1012.4
22 21:54 NE 5 10.00 Overcast OVC007 69.1 66 90% 29.99 1012.8
22 20:54 E 3 10.00 Overcast OVC010 69.1 66 90% 29.99 1012.9
22 19:54 NE 6 10.00 Overcast OVC010 71.1 66.9 78.1 68 87% 29.99 1013.0 0.65
22 18:54 NE 9 10.00 Fair CLR 73 69.1 87% 29.98 1012.6
22 17:54 E 3 10.00 Fair CLR 75.9 70 82% 77 29.97 1012.2
22 16:54 Calm 10.00 Fair CLR 75.9 69.1 79% 77 29.97 1012.3 0.65
22 15:54 Calm 10.00 Fair CLR 73.9 69.1 85% 29.98 1012.7
22 14:54 E 3 9.00 Thunderstorm in Vicinity Light Rain FEW070 SCT090 OVC110 70 66.9 90% 30 1013.5 0.65
22 13:54 Calm 9.00 Thunderstorm in Vicinity Light Rain FEW045 BKN055 BKN070 78.1 70 80.1 71.1 76% 80 30 1013.2
Date Time (edt) Wind (mph) Vis. (mi.) Weather Sky Cond. Air Dwpt Max. Min. Relative Humidity Wind Chill (°F) Heat Index (°F) altimeter (in) sea level (mb) 1 hr 3 hr 6 hr
6 hour
Temperature (ºF) Pressure Precipitation (in)